Location: Unspecified
(32.1890°N, 0.0000°E)
Time: 05:07:13
(UTC+00:00)

NOAA 15 - Visible Passes

Search period start: 04 April 2026 00:00
Search period end: 14 April 2026 00:00
Orbit: 795 x 808 km, 98.5° (Epoch: 29 March)

Date Brightness Start Highest point End Pass type
(mag) Time Alt. Az. Time Alt. Az. Time Alt. Az.
4 Apr 5.3 18:47:02 10° S 18:52:15 61° W 18:57:29 10° NNW visible
6 Apr 7.2 19:35:52 10° SW 19:39:40 20° W 19:43:30 10° NW visible
7 Apr 6.2 19:08:27 10° SSW 19:13:18 37° W 19:18:11 10° NNW visible
8 Apr 5.1 18:41:46 10° S 18:47:01 69° WSW 18:52:18 10° NNW visible
9 Apr 7.6 19:59:05 10° WSW 20:00:52 12° W 20:02:39 10° WNW visible
10 Apr 7.1 19:30:21 10° SSW 19:34:25 22° W 19:38:31 10° NW visible
11 Apr 6.0 19:03:05 10° S 19:08:04 41° W 19:13:03 10° NNW visible
13 Apr 7.5 19:53:06 10° WSW 19:55:35 13° W 19:58:05 10° WNW visible
